Location: ??????????
(42.1626°N, 44.1160°E)
Time: 14:44:06
(UTC+00:00)

H-2A R/B - Pass Details

Date: 03 March 2021
Orbit: 732 x 837 km, 98.2° (Epoch: 13 April)

Event Time Altitude Azimuth Distance (km) Brightness Sun altitude
Rises 16:18:17 0° 184° (S) 3,357 5.3 -16.0°
Reaches altitude 10° 16:20:44 10° 190° (S) 2,436 4.6 -16.5°
Maximum altitude 16:25:53 44° 262° (W) 1,149 3.4 -17.4°
Drops below altitude 10° 16:31:06 10° 334° (NNW) 2,456 5.1 -18.4°
Sets 16:33:35 0° 341° (NNW) 3,389 5.7 -18.8°
